Total_Precipitation_Accumulation
0.65 0.60 0.61 0.60 0.55 0.53 0.53 0.54 0.55 0.53 0.51 0.47 0.42 0.39 0.39 0.41 0.37 0.31 0.27 0.25 0.24 0.27 0.40 0.61 0.91 1.23 1.45 1.54 1.53 1.36 1.27 1.13 0.97 0.89 0.85 0.91 0.92 0.90 0.94 1.06 1.04 0.93 0.91
0.61 0.56 0.52 0.52 0.48 0.43 0.40 0.41 0.41 0.42 0.42 0.40 0.35 0.31 0.32 0.36 0.36 0.34 0.34 0.34 0.29 0.28 0.32 0.45 0.67 0.98 1.33 1.58 1.66 1.59 1.43 1.33 1.17 1.00 0.93 0.92 0.96 0.95 0.94 1.00 1.08 1.05 0.95
0.63 0.61 0.56 0.52 0.49 0.47 0.46 0.44 0.44 0.43 0.40 0.37 0.33 0.29 0.28 0.28 0.32 0.34 0.36 0.37 0.38 0.36 0.35 0.41 0.54 0.78 1.17 1.54 1.75 1.85 1.70 1.50 1.37 1.22 1.02 0.92 0.94 0.98 0.98 1.01 1.09 1.16 1.13
0.65 0.63 0.60 0.56 0.56 0.56 0.57 0.54 0.49 0.46 0.43 0.39 0.36 0.33 0.31 0.28 0.26 0.29 0.34 0.35 0.36 0.36 0.35 0.38 0.50 0.71 0.99 1.34 1.68 1.95 2.04 1.83 1.68 1.59 1.38 1.14 0.99 1.00 1.04 1.06 1.12 1.21 1.29
0.68 0.64 0.62 0.63 0.65 0.69 0.67 0.63 0.58 0.51 0.47 0.43 0.41 0.39 0.35 0.32 0.30 0.30 0.31 0.35 0.37 0.35 0.35 0.37 0.43 0.55 0.76 1.09 1.55 1.96 2.32 2.33 2.12 1.97 1.79 1.56 1.30 1.13 1.14 1.14 1.18 1.27 1.38
0.73 0.69 0.67 0.67 0.71 0.74 0.73 0.69 0.63 0.57 0.54 0.52 0.52 0.49 0.42 0.36 0.33 0.31 0.30 0.33 0.35 0.36 0.36 0.40 0.44 0.43 0.49 0.68 1.02 1.53 2.01 2.38 2.42 2.30 2.18 1.98 1.75 1.52 1.39 1.33 1.29 1.38 1.50
0.83 0.79 0.71 0.71 0.70 0.71 0.69 0.68 0.68 0.67 0.63 0.62 0.66 0.65 0.57 0.46 0.38 0.33 0.33 0.34 0.35 0.40 0.47 0.52 0.58 0.55 0.48 0.52 0.59 0.82 1.32 1.96 2.36 2.50 2.49 2.43 2.22 1.96 1.74 1.58 1.52 1.56 1.63
0.88 0.92 0.82 0.75 0.73 0.70 0.72 0.74 0.72 0.72 0.73 0.68 0.70 0.75 0.68 0.60 0.48 0.36 0.33 0.34 0.38 0.45 0.57 0.62 0.69 0.70 0.63 0.54 0.45 0.51 0.71 1.22 1.92 2.46 2.61 2.60 2.64 2.46 2.12 1.86 1.75 1.79 1.85
0.82 0.91 0.94 0.84 0.78 0.73 0.70 0.68 0.69 0.68 0.71 0.66 0.63 0.83 0.89 0.65 0.43 0.33 0.30 0.30 0.31 0.33 0.38 0.45 0.53 0.59 0.66 0.66 0.57 0.51 0.53 0.76 1.30 2.06 2.61 2.73 2.77 2.87 2.67 2.24 1.97 1.91 1.96
0.86 0.83 0.91 0.90 0.86 0.82 0.75 0.69 0.67 0.67 0.73 0.75 0.66 0.62 0.66 0.65 0.64 0.45 0.29 0.27 0.27 0.27 0.27 0.29 0.34 0.40 0.51 0.63 0.70 0.67 0.63 0.66 0.95 1.49 2.21 2.80 2.95 3.10 3.22 2.86 2.40 2.13 2.04
0.94 0.86 0.84 0.87 0.86 0.84 0.83 0.77 0.71 0.72 0.75 0.78 0.75 0.65 0.58 0.51 0.53 0.62 0.43 0.31 0.30 0.27 0.27 0.27 0.29 0.31 0.35 0.46 0.58 0.69 0.76 0.74 0.89 1.20 1.63 2.37 3.05 3.31 3.51 3.40 2.89 2.41 2.16
1.01 0.98 0.86 0.85 0.86 0.85 0.85 0.82 0.76 0.74 0.76 0.76 0.74 0.71 0.72 0.69 0.56 0.60 0.55 0.39 0.35 0.32 0.33 0.33 0.33 0.32 0.34 0.37 0.46 0.62 0.71 0.76 0.83 0.98 1.16 1.62 2.45 3.19 3.48 3.45 3.16 2.76 2.37
1.12 1.01 0.96 0.87 0.86 0.85 0.83 0.83 0.83 0.77 0.73 0.78 0.80 0.75 0.70 0.66 0.61 0.66 0.74 0.61 0.50 0.40 0.39 0.39 0.36 0.37 0.38 0.40 0.45 0.52 0.57 0.67 0.77 0.86 0.90 1.02 1.44 2.37 3.25 3.59 3.38 3.02 2.72
1.14 1.03 0.98 0.91 0.86 0.87 0.89 0.87 0.85 0.82 0.77 0.75 0.74 0.73 0.71 0.66 0.67 0.73 0.83 0.91 0.81 0.55 0.45 0.41 0.38 0.39 0.41 0.45 0.48 0.52 0.48 0.56 0.65 0.77 0.87 0.95 1.06 1.43 2.25 3.27 3.88 3.59 3.08
1.24 1.17 1.09 1.04 0.96 0.94 0.93 0.91 0.88 0.83 0.82 0.82 0.80 0.76 0.76 0.70 0.69 0.73 0.78 0.93 1.12 0.93 0.51 0.34 0.36 0.39 0.41 0.47 0.55 0.53 0.48 0.53 0.60 0.69 0.78 0.89 0.96 1.06 1.39 2.09 3.11 3.85 3.77
1.36 1.36 1.30 1.25 1.14 1.09 1.05 1.01 0.96 0.87 0.86 0.86 0.87 0.84 0.82 0.79 0.76 0.77 0.80 0.82 0.89 0.99 0.75 0.37 0.34 0.39 0.46 0.48 0.57 0.54 0.54 0.62 0.64 0.67 0.73 0.78 0.86 0.99 1.15 1.44 2.07 3.07 3.73
1.40 1.46 1.50 1.45 1.37 1.27 1.23 1.20 1.14 1.06 1.01 0.93 0.92 0.92 0.88 0.84 0.84 0.80 0.81 0.78 0.76 0.84 0.86 0.45 0.35 0.41 0.52 0.57 0.61 0.61 0.62 0.61 0.59 0.64 0.71 0.76 0.80 0.92 1.06 1.26 1.54 2.18 3.11
1.37 1.42 1.60 1.64 1.57 1.47 1.37 1.38 1.37 1.28 1.22 1.14 1.06 1.03 0.99 0.97 1.00 0.94 0.89 0.83 0.76 0.75 0.86 0.70 0.44 0.43 0.53 0.64 0.72 0.74 0.71 0.68 0.64 0.72 0.76 0.78 0.80 0.86 1.00 1.17 1.37 1.68 2.31
1.34 1.43 1.59 1.73 1.69 1.65 1.55 1.43 1.48 1.58 1.53 1.43 1.34 1.31 1.25 1.20 1.21 1.16 1.08 0.96 0.85 0.78 0.80 0.81 0.61 0.50 0.56 0.69 0.85 0.87 0.85 0.80 0.72 0.79 0.83 0.84 0.85 0.86 0.92 1.07 1.26 1.46 1.73
1.28 1.46 1.57 1.73 1.80 1.86 1.94 1.83 1.73 1.64 1.62 1.61 1.56 1.53 1.55 1.51 1.46 1.40 1.36 1.16 0.99 0.93 0.89 0.91 0.79 0.65 0.64 0.73 0.98 1.09 1.07 0.99 0.92 0.83 0.85 0.87 0.90 0.90 0.90 0.94 1.04 1.20 1.45
1.29 1.42 1.53 1.65 1.70 1.90 2.36 2.46 2.05 1.56 1.41 1.41 1.38 1.37 1.45 1.59 1.65 1.66 1.65 1.47 1.32 1.29 1.21 1.18 1.05 0.88 0.80 0.89 1.08 1.17 1.24 1.19 1.18 1.02 0.87 0.81 0.82 0.82 0.83 0.89 0.98 1.09 1.28
1.27 1.39 1.45 1.47 1.52 1.72 2.26 2.40 1.90 1.45 1.27 1.25 1.25 1.19 1.21 1.34 1.42 1.49 1.61 1.62 1.65 1.71 1.66 1.51 1.32 1.14 0.95 0.90 1.03 1.31 1.44 1.53 1.54 1.24 1.07 0.99 0.87 0.88 0.88 0.88 0.93 0.98 1.15
1.20 1.25 1.29 1.27 1.28 1.47 1.93 2.01 1.72 1.40 1.22 1.10 1.09 1.08 1.08 1.11 1.21 1.14 1.25 1.39 1.50 1.67 1.79 1.75 1.67 1.33 1.09 1.00 1.19 1.44 1.55 1.63 1.54 1.37 1.36 1.42 1.19 1.05 0.99 0.99 1.02 0.97 1.07
1.15 1.12 1.12 1.11 1.11 1.24 1.70 1.88 1.73 1.41 1.30 1.19 1.12 1.01 0.97 0.97 1.12 1.18 1.22 1.22 1.18 1.30 1.54 1.69 1.76 1.55 1.32 1.28 1.50 1.74 1.88 1.90 1.73 1.62 1.59 1.72 1.43 1.24 1.16 1.11 1.09 1.00 1.01
1.01 1.00 0.99 1.05 1.01 1.07 1.52 1.93 1.85 1.48 1.45 1.36 1.25 1.16 1.06 0.94 1.18 1.30 1.22 1.14 1.04 1.09 1.24 1.51 1.68 1.69 1.68 1.72 1.87 2.12 2.25 2.30 2.17 1.86 1.72 1.81 1.65 1.44 1.38 1.38 1.28 1.15 1.02
0.86 0.89 0.86 0.91 0.91 0.97 1.31 1.84 1.97 1.51 1.43 1.34 1.27 1.24 1.31 1.24 1.31 1.27 1.12 1.14 1.16 1.03 1.00 1.09 1.17 1.26 1.28 1.33 1.61 1.84 2.02 2.22 2.19 2.17 1.86 1.81 1.83 1.77 1.92 1.64 1.36 1.13 1.00